Weather History for Elmendorf AFB, AK

Change the Weather History Date:

Tuesday, November 20, 2012

  Actual Average Record
Temperature  
Mean Temperature 5 °F -  
Max Temperature 12 °F 26 °F 54 °F (1967)
Min Temperature -2 °F 12 °F -20 °F (1993)
Degree Days  
Heating Degree Days 60    
Moisture  
Dew Point -1 °F    
Average Humidity 70    
Maximum Humidity 80    
Minimum Humidity 58    
Precipitation  
Precipitation 0.00 in - - ()
Snow  
Snow 0.00 in - - ()
Snow Depth 2.00 in    
Sea Level Pressure  
Sea Level Pressure 29.65 in    
Wind  
Wind Speed 4 mph (ENE)    
Max Wind Speed 9 mph    
Max Gust Speed -    
Visibility 10 miles    
Events      
Averages and records for this station are not official NWS values.
T = Trace of Precipitation, MM = Missing Value Source: NWS Daily Summary

Daily Weather History Graph

Daily Weather History Graph

Search for Another Location

Airport:

Trip Planner

Search our weather history database for the weather conditions in past years. The results will help you decide how hot, cold, wet, or windy it might be!

Date:

Astronomy

Nov. 20, 2012 Rise Set
Actual Time 9:20 AM AKST 4:08 PM AKST
Civil Twilight 8:26 AM AKST 5:02 PM AKST
Nautical Twilight 7:31 AM AKST 5:58 PM AKST
Astronomical Twilight 6:39 AM AKST 6:49 PM AKST
Moon 1:52 PM AKST (11/20) No Moon Set
Length of Visible Light 8h 36m
Length of Day
6h 48m
First Quarter, 53% of the Moon is Illuminated
Nov 20
First Quarter
Nov 28
Full
Dec 6
Last Quarter
Dec 12
New
Dec 19
First Quarter

Hourly Weather History & Observations

Time (AKST) Temp. Windchill Dew Point Humidity Pressure Visibility Wind Dir Wind Speed Gust Speed Precip Events Conditions
12:55 AM -2.4 °F - -8.1 °F 76% 29.53 in 10.0 mi Calm Calm - N/A   Clear
1:55 AM 2.5 °F - -2.9 °F 78% 29.54 in 10.0 mi Calm Calm - N/A   Clear
2:55 AM 1.9 °F - -3.1 °F 79% 29.56 in 10.0 mi Calm Calm - N/A   Clear
3:55 AM 1.4 °F -8.3 °F -3.5 °F 80% 29.56 in 10.0 mi East 4.6 mph - N/A   Clear
4:55 AM -1.3 °F -11.4 °F -6.9 °F 77% 29.58 in 10.0 mi East 4.6 mph - N/A   Mostly Cloudy
5:55 AM 10.2 °F -2.7 °F 1.9 °F 69% 29.60 in 10.0 mi NE 9.2 mph - N/A   Overcast
6:55 AM 8.8 °F 2.2 °F 1.4 °F 72% 29.61 in 10.0 mi East 3.5 mph - N/A   Overcast
7:55 AM 10.2 °F -1.7 °F 1.8 °F 69% 29.62 in 10.0 mi NE 8.1 mph - N/A   Clear
8:55 AM 10.4 °F -2.4 °F 1.9 °F 69% 29.64 in 10.0 mi NE 9.2 mph - N/A   Clear
9:55 AM 9.9 °F -2.2 °F -0.0 °F 64% 29.65 in 10.0 mi NE 8.1 mph - N/A   Partly Cloudy
10:55 AM 9.9 °F -2.2 °F 0.7 °F 66% 29.67 in 10.0 mi NE 8.1 mph - N/A   Scattered Clouds
11:55 AM 9.5 °F -2.6 °F -0.2 °F 65% 29.69 in 10.0 mi NE 8.1 mph - N/A   Clear
12:55 PM 10.8 °F -2.0 °F 0.9 °F 64% 29.68 in 10.0 mi NE 9.2 mph - N/A   Clear
1:55 PM 12.0 °F 2.7 °F 0.7 °F 60% 29.68 in 10.0 mi ENE 5.8 mph - N/A   Clear
2:55 PM 12.2 °F 0.7 °F -0.2 °F 58% 29.69 in 10.0 mi NE 8.1 mph - N/A   Clear
3:55 PM 10.8 °F 1.2 °F -0.6 °F 60% 29.69 in 10.0 mi NE 5.8 mph - N/A   Clear
4:55 PM 10.0 °F - -0.8 °F 62% 29.69 in 10.0 mi Calm Calm - N/A   Clear
5:55 PM 10.0 °F 1.8 °F -0.2 °F 63% 29.69 in 10.0 mi ENE 4.6 mph - N/A   Clear
6:55 PM 5.2 °F -1.9 °F -2.0 °F 72% 29.69 in 10.0 mi East 3.5 mph - N/A   Clear
7:55 PM 3.2 °F -6.2 °F -2.4 °F 78% 29.68 in 10.0 mi ESE 4.6 mph - N/A   Clear
8:55 PM 2.8 °F - -2.9 °F 77% 29.68 in 10.0 mi Calm Calm - N/A   Clear
9:55 PM 3.0 °F -8.0 °F -2.7 °F 77% 29.69 in 10.0 mi East 5.8 mph - N/A   Clear
10:55 PM 1.0 °F - -4.9 °F 76% 29.69 in 10.0 mi Calm Calm - N/A   Clear
11:55 PM 2.3 °F - -2.9 °F 79% 29.69 in 10.0 mi Calm Calm - N/A   Clear